Lid_Strength_Index
2 2 2 3 4 5 5 2 5 0 -0 5 4 6 5 8 6 4 5 5 6 7 6 7 7 7 6 5 5 7 6 6 8 8 6 5 6 7 7 10 12 9 10 12
2 2 2 3 4 5 3 3 3 0 1 7 6 5 5 5 6 5 6 6 6 6 7 9 7 7 6 5 5 6 5 7 10 9 7 6 7 7 7 7 7 10 12 12
1 2 2 3 4 5 4 4 6 4 3 3 5 6 6 6 5 5 5 6 5 6 7 6 8 7 6 5 5 5 4 7 9 12 10 8 9 8 8 7 10 10 9 11
1 1 2 3 4 5 4 3 5 5 6 6 5 5 6 7 7 5 5 6 6 7 8 7 8 6 6 6 6 5 5 9 8 8 8 8 8 9 8 9 8 10 9 9
1 1 2 3 4 5 2 5 5 3 4 5 6 7 7 7 6 6 6 7 6 6 7 7 8 7 6 7 6 6 5 9 8 10 8 8 9 9 8 8 8 8 8 9
1 1 2 2 4 4 2 3 3 4 7 6 6 6 6 6 5 5 5 5 6 6 7 6 5 5 5 5 6 7 7 8 9 10 9 9 11 9 8 8 8 7 9 7
2 1 1 2 3 4 2 4 4 5 6 5 5 6 6 6 6 6 6 5 6 6 5 5 4 5 5 5 5 6 7 7 8 10 10 14 9 6 7 7 7 7 7 6
1 2 1 2 3 4 2 1 4 4 6 5 6 7 6 6 6 6 6 6 6 5 5 6 8 7 7 6 6 6 5 7 9 11 11 10 8 7 8 8 8 6 7 6
1 2 1 2 2 4 2 1 2 4 6 6 6 6 6 6 6 6 6 5 4 5 5 7 10 11 9 9 8 5 6 6 8 9 11 12 9 6 5 5 10 6 6 6
2 2 2 2 2 3 3 1 2 3 5 4 5 5 5 5 5 5 6 5 5 5 6 8 8 9 7 10 9 9 8 8 9 9 10 9 6 6 5 11 10 5 5 5
2 2 2 2 2 2 3 2 1 4 4 4 4 4 5 4 4 6 5 5 5 5 7 7 7 8 7 8 7 8 9 9 9 9 11 12 5 6 9 7 5 5 5 4
2 2 2 2 2 2 3 3 1 2 3 3 2 2 2 3 4 4 3 5 5 4 5 6 5 8 7 8 10 7 9 7 8 8 9 6 4 5 4 4 5 4 4 3
2 2 3 2 2 2 3 3 3 3 3 4 3 3 2 2 2 2 4 3 3 3 3 4 5 8 6 9 8 8 7 6 7 7 7 6 5 4 4 3 4 3 3 3
3 3 3 3 2 3 4 3 2 3 4 5 4 2 3 1 2 2 2 2 2 2 2 4 5 7 5 6 7 7 6 6 7 8 6 5 5 4 4 4 3 3 3 3
3 3 3 3 3 3 3 2 1 2 4 6 4 3 2 2 2 2 2 2 2 3 5 5 5 4 5 5 5 7 5 6 8 7 5 5 5 4 3 4 4 3 4 4
4 3 4 3 4 4 4 3 2 1 3 4 6 3 3 2 2 2 2 1 2 3 4 4 3 4 5 7 7 6 5 4 4 5 4 4 3 3 3 3 4 4 5 5
4 4 4 4 4 4 5 5 4 5 3 4 6 5 3 3 3 2 2 2 2 3 3 5 4 5 5 6 8 5 4 4 4 3 3 5 4 5 3 3 3 4 5 6
4 4 5 5 5 5 4 2 5 4 3 4 7 6 5 3 4 5 2 3 3 4 4 4 5 5 5 7 6 4 4 4 4 4 3 3 3 3 3 3 3 4 6 6
4 4 5 4 5 4 2 5 5 2 4 6 6 7 7 3 3 3 4 3 6 3 6 5 5 6 8 6 6 5 4 4 4 3 3 3 4 4 3 3 4 5 6 6
3 3 3 4 2 5 4 3 4 4 4 5 7 4 6 4 4 5 4 4 6 8 6 4 7 7 5 4 4 4 3 3 3 5 5 4 4 4 3 3 3 4 5 5
3 2 3 2 5 3 4 5 6 5 7 6 5 6 5 2 6 6 4 6 5 9 8 8 8 8 6 5 4 3 3 3 3 3 3 3 3 3 3 3 3 3 3 3
5 4 3 2 3 4 7 7 6 7 8 5 5 5 5 4 3 5 5 7 6 10 5 8 9 7 5 4 4 3 3 3 3 2 3 2 3 2 2 2 2 2 2 2
3 3 4 4 5 11 10 11 9 8 6 5 5 6 4 4 4 5 6 9 9 5 8 9 6 6 4 4 4 3 3 2 2 2 2 3 2 2 2 2 2 2 1 1
6 6 12 8 9 8 7 6 6 5 4 4 4 5 5 4 6 5 9 7 6 10 11 10 6 5 5 4 3 3 4 3 3 3 3 3 3 3 2 1 2 2 2 1
8 7 11 8 4 4 4 3 4 3 3 4 5 5 5 6 7 6 7 9 11 9 9 6 5 5 4 4 3 3 3 3 3 2 3 3 2 2 2 2 2 2 1 1
7 7 8 5 6 6 5 4 4 3 3 3 4 6 7 8 6 9 9 10 11 7 5 4 3 4 3 3 3 3 2 2 2 2 2 3 2 2 2 2 2 2 2 1
9 8 6 5 4 5 4 3 3 2 4 7 7 9 9 6 8 9 6 8 6 4 3 3 3 4 3 3 3 3 2 2 2 2 2 2 2 2 2 2 2 2 2 1